Regional Weather Roundup
Issued by NWS Little Rock, AR

Home | Current Version | Previous Version | Text Only | Print | Product List | Glossary Off
Versions: 1 2 3 4 5 6 7 8 9 10 11 12 13 14 15 16 17 18 19 20 21 22 23 24 25 26 27 28 29 30 31 32 33 34 35 36 37 38 39 40 41 42 43 44 45 46 47 48 49 50

644
ASUS44 KLZK 082105
RWRLZK

WEATHER ROUNDUP FOR ARKANSAS
NATIONAL WEATHER SERVICE LITTLE ROCK AR
300 PM CST THU DEC 08 2016

NOTE: "FAIR" INDICATES FEW OR NO CLOUDS BELOW 12,000 FEET WITH NO
SIGNIFICANT WEATHER AND/OR OBSTRUCTIONS TO VISIBILITY.

ARZ001-003-010-029-082200-
NORTHWEST ARKANSAS

CITY           SKY/WX    TMP DP  RH WIND       PRES   REMARKS
FAYETTEVILLE   SUNNY     31  11  43 NW10      30.57S WCI  22
FORT SMITH     SUNNY     39   7  26 NW12      30.60S
HARRISON       SUNNY     31   9  39 NW13G21   30.53S WCI  21
BENTONVILLE    SUNNY     32   7  34 NW10      30.58R WCI  24
ROGERS         SUNNY     30  10  43 NW12      30.57S WCI  20
SILOAM SPGS    SUNNY     30  10  43 N12       30.58S WCI  21
HIGHFILL       SUNNY     32  10  40 NW8G20    30.57S WCI  25
SPRINGDALE     SUNNY     32   9  37 NW10      30.58S WCI  24
$$

ARZ004-005-016-082200-
NORTH CENTRAL ARKANSAS

CITY           SKY/WX    TMP DP  RH WIND       PRES   REMARKS
BATESVILLE     SUNNY     37  10  32 NW9G16    30.54R
FLIPPIN        SUNNY     34   7  32 NW13      30.53R WCI  25
MTN HOME       SUNNY     33  11  39 VRB6      30.53S WCI  28
$$

ARZ040-041-082200-
WEST CENTRAL ARKANSAS

CITY           SKY/WX    TMP DP  RH WIND       PRES   REMARKS
MENA           MOSUNNY   36  12  38 N8        30.55S
MOUNT IDA      CLOUDY    38  10  31 N6        30.52R
$$

ARZ009-017-025-026-028-082200-
NORTHEAST ARKANSAS

CITY           SKY/WX    TMP DP  RH WIND       PRES   REMARKS
CORNING        FAIR      37  14  38 W9        30.52R
JONESBORO      MOSUNNY   36  15  42 NW9       30.52R
NEWPORT        MOSUNNY   37  12  35 NW13      30.54R
WALNUT RIDGE   SUNNY     37  12  35 NW13      30.51S
BLYTHEVILLE    CLOUDY    38  19  46 N12       30.51S
NW BLYTHEVILLE PTSUNNY   36  18  48 NW7G18    30.51S
$$

ARZ022-023-033-042-044-082200-
CENTRAL ARKANSAS

CITY           SKY/WX    TMP DP  RH WIND       PRES   REMARKS
LITTLE ROCK    PTSUNNY   39  15  37 N7        30.55R
N LITTLE ROCK    N/A     38  13  36 N7        30.57R
JACKSONVILLE   PTSUNNY   39  12  33 N8        30.54R
SEARCY         MOSUNNY   38  12  34 N8        30.56R
HOT SPRINGS    CLOUDY    40  11  30 N3        30.54R
RUSSELLVILLE   SUNNY     39  13  34 W12       30.55S
CLINTON        FAIR      37   9  30 NW9G16    30.55R
$$

ARZ036-082200-
EAST ARKANSAS

CITY           SKY/WX    TMP DP  RH WIND       PRES   REMARKS
WEST MEMPHIS   CLOUDY    36  19  50 N8        30.52R
$$

ARZ050-053-066-070-073-082200-
SOUTHWEST ARKANSAS

CITY           SKY/WX    TMP DP  RH WIND       PRES   REMARKS
ARKADELPHIA    FAIR      42  21  43 N8        30.55R
CAMDEN         PTSUNNY   41  25  52 NW7       30.54S
TEXARKANA      CLOUDY    39  20  46 N10       30.55S
EL DORADO      CLOUDY    41  25  53 NW12      30.53R
DE QUEEN       MOSUNNY   40  13  33 N9        30.56S
$$

ARZ056-057-069-082200-
SOUTHEAST ARKANSAS

CITY           SKY/WX    TMP DP  RH WIND       PRES   REMARKS
PINE BLUFF     PTSUNNY   39  18  42 N12       30.54S
STUTTGART      CLOUDY    39  16  38 N13       30.54R
MONTICELLO     CLOUDY    40  25  55 NE6       30.52R

$$






USA.gov is the U.S. government's official web portal to all federal, state and local government web resources and services.